Date,TemperatureHighF,TemperatureAvgF,TemperatureLowF,DewpointHighF,DewpointAvgF,DewpointLowF,HumidityHigh,HumidityAvg,HumidityLow,PressureMaxIn,PressureMinIn,WindSpeedMaxMPH,WindSpeedAvgMPH,GustSpeedMaxMPH,PrecipitationSumIn
2013-6-12,88.0,75.5,64.0,70.0,66.4,61.0,88,74,51,29.75,29.53,15,2,0,0.00
2013-6-13,81.0,70.4,61.0,61.0,53.6,50.0,88,57,36,29.94,29.72,7,0,0,0.00
2013-6-14,72.0,65.7,61.0,61.0,57.1,52.0,88,73,59,29.97,29.63,18,0,0,0.00
2013-6-15,79.0,69.2,63.0,70.0,63.6,61.0,93,83,69,29.88,29.74,12,0,0,0.00
2013-6-16,84.0,73.8,63.0,66.0,54.5,43.0,93,57,23,29.86,29.80,0,0,0,0.00
2013-6-17,86.0,74.2,61.0,57.0,51.4,43.0,77,47,26,29.86,29.78,9,1,0,0.00
2013-6-18,79.0,70.6,61.0,57.0,53.7,48.0,77,56,39,29.92,29.84,0,0,0,0.00
2013-6-19,81.0,71.2,61.0,61.0,55.9,54.0,82,60,41,29.98,29.88,5,0,0,0.00
2013-6-20,84.0,73.3,64.0,63.0,58.8,55.0,77,61,39,29.94,29.86,9,2,0,0.00
2013-6-22,90.0,83.2,73.0,70.0,68.0,64.0,78,61,48,29.93,29.75,15,2,0,0.00
2013-6-23,79.0,73.6,64.0,70.0,65.1,63.0,93,75,57,29.92,29.72,6,0,0,0.00
2013-6-24,72.0,68.9,63.0,68.0,64.6,61.0,93,87,78,29.94,29.72,2,0,0,0.00
2013-6-25,84.0,73.8,66.0,72.0,67.3,63.0,94,80,54,29.73,29.63,5,0,0,0.00
2013-6-26,82.0,73.9,70.0,72.0,66.9,61.0,88,78,60,29.75,29.57,0,0,0,0.00
2013-6-27,84.0,74.7,64.0,64.0,60.8,57.0,82,63,39,29.82,29.74,8,0,0,0.00
2013-6-28,79.0,71.2,64.0,57.0,55.0,50.0,72,58,36,29.78,29.65,17,3,0,0.00
2013-6-29,72.0,65.8,63.0,61.0,56.4,54.0,82,72,59,29.82,29.64,9,1,0,0.00
2013-6-30,75.0,65.7,57.0,54.0,50.3,43.0,82,59,33,30.00,29.82,5,0,0,0.00
2013-7-1,79.0,69.0,57.0,55.0,49.1,46.0,76,51,31,30.05,30.00,2,0,0,0.00
2013-7-2,81.0,70.3,57.0,57.0,51.3,41.0,82,53,24,30.04,29.93,2,0,0,0.00
2013-7-3,81.0,69.6,57.0,55.0,51.8,46.0,87,56,30,29.99,29.89,0,0,0,0.00
2013-7-4,81.0,71.1,57.0,57.0,54.8,52.0,87,58,36,29.94,29.86,5,0,0,0.00
2013-7-5,82.0,73.8,61.0,61.0,57.0,54.0,77,57,42,29.91,29.82,9,1,0,0.00
2013-7-6,88.0,75.5,66.0,64.0,59.8,57.0,72,59,35,29.88,29.79,8,1,0,0.00
2013-7-7,90.0,78.4,66.0,68.0,64.0,61.0,88,62,43,29.85,29.79,7,0,0,0.00
2013-7-8,88.0,79.5,73.0,72.0,67.3,-99.9,83,68,51,29.90,29.82,0,0,0,0.00
2013-7-9,90.0,79.0,72.0,73.0,71.1,68.0,94,77,55,29.90,29.77,1,0,0,0.00
2013-7-10,81.0,72.3,66.0,70.0,55.3,-99.9,88,58,39,29.98,29.84,3,0,0,0.00
2013-7-11,81.0,70.6,57.0,57.0,54.3,50.0,87,58,36,30.03,29.96,7,0,0,0.00
2013-7-12,81.0,71.0,59.0,59.0,55.7,54.0,82,61,41,30.00,29.93,7,1,0,0.00
2013-7-13,72.0,68.0,64.0,61.0,56.7,54.0,82,66,56,30.05,29.93,1,0,0,0.00
2013-7-14,82.0,72.9,61.0,63.0,60.7,57.0,88,67,42,30.14,30.01,3,0,0,0.00
2013-7-15,86.0,74.6,64.0,70.0,64.0,57.0,88,70,51,30.17,30.09,1,0,0,0.00
2013-7-16,88.0,79.8,70.0,70.0,67.9,64.0,88,68,45,30.20,30.14,1,0,0,0.00
2013-7-17,91.0,81.7,72.0,72.0,67.9,64.0,88,65,43,30.23,30.11,1,0,0,0.00
2013-7-18,91.0,81.7,72.0,70.0,65.7,63.0,83,61,40,30.13,29.85,10,1,0,0.00
2013-7-19,91.0,79.1,70.0,72.0,64.3,57.0,78,61,40,29.85,29.75,5,0,0,0.00
2013-7-20,86.0,72.1,61.0,63.0,58.4,55.0,82,64,37,29.90,29.80,0,0,0,0.00
2013-7-21,79.0,71.5,64.0,66.0,62.2,55.0,88,73,44,29.87,29.75,8,0,0,0.00
2013-7-22,90.0,73.0,63.0,72.0,64.3,61.0,93,76,45,29.81,29.62,7,1,0,0.00
2013-7-23,75.0,67.1,61.0,64.0,56.1,54.0,88,69,49,29.93,29.73,0,0,0,0.00
2013-7-24,75.0,65.2,55.0,57.0,53.8,50.0,87,68,43,30.01,29.92,0,0,0,0.00
2013-7-25,81.0,69.7,57.0,63.0,59.0,54.0,93,70,47,29.97,29.84,5,0,0,0.00
2013-7-26,72.0,65.9,57.0,66.0,56.7,50.0,93,73,52,29.96,29.85,10,2,0,0.00
2013-7-27,64.0,57.8,50.0,52.0,45.8,41.0,87,66,42,29.99,29.88,7,1,0,0.00
2013-7-28,70.0,58.9,48.0,50.0,46.8,45.0,87,65,46,29.99,29.87,5,0,0,0.00
2013-7-29,72.0,62.1,48.0,57.0,51.0,46.0,93,69,46,30.06,29.99,2,0,0,0.00
2013-7-30,68.0,64.4,63.0,63.0,60.1,55.0,93,85,72,30.02,29.97,0,0,0,0.00
2013-7-31,79.0,69.7,59.0,66.0,60.6,57.0,93,74,50,30.03,29.94,1,0,0,0.00
2013-8-1,82.0,69.9,57.0,61.0,57.5,54.0,93,67,42,30.00,29.82,1,0,0,0.00
2013-8-2,79.0,68.1,63.0,63.0,58.9,54.0,88,73,41,29.95,29.80,0,0,0,0.00
2013-8-3,75.0,66.9,57.0,59.0,53.4,48.0,88,63,40,30.13,29.95,0,0,0,0.00
2013-8-4,75.0,66.2,55.0,57.0,53.5,50.0,87,65,43,30.14,30.00,1,0,0,0.00
2013-8-5,81.0,69.7,63.0,68.0,61.8,54.0,88,77,61,29.99,29.75,1,0,0,0.00
2013-8-6,84.0,74.3,63.0,70.0,64.7,61.0,93,73,51,29.81,29.70,2,0,0,0.00
2013-8-7,75.0,70.1,64.0,64.0,60.4,55.0,93,71,56,29.96,29.73,5,0,0,0.00
2013-8-8,79.0,66.5,55.0,59.0,54.9,52.0,87,68,44,29.97,29.89,0,0,0,0.00
2013-8-9,75.0,68.5,63.0,63.0,57.0,52.0,88,68,43,30.07,29.93,1,0,0,0.00
2013-8-10,79.0,68.3,55.0,61.0,54.6,46.0,87,63,38,30.15,30.03,0,0,0,0.00
2013-8-11,81.0,70.5,61.0,64.0,60.7,55.0,88,72,57,30.06,29.92,2,0,0,0.00